This is the latest recevied weather packets stored in our database for station/object KN4QD-13. If no packets are shown the sender has not sent any weather packets the latest 10 day(s).
| Time | Temp. | Humidity | Pressure | Rain* | Wind** | Luminosity | Snow |
|---|---|---|---|---|---|---|---|
| 1777844536 | 13.89° C | 42% | 1016 hPa | 0 mm | - | - | - |
| 1777839736 | 15.56° C | 33% | 1017.1 hPa | 0 mm | - | - | - |
| 1777838556 | 15.56° C | 31% | 1017.4 hPa | 0 mm | - | - | - |
| 1777834936 | 15° C | 28% | 1018.1 hPa | 0 mm | - | - | - |
| 1777834336 | 16.11° C | 28% | 1018.2 hPa | 0 mm | - | - | - |
| 1777833736 | 16.11° C | 28% | 1018.5 hPa | 0 mm | - | - | - |
| 1777832556 | 16.67° C | 30% | 1018.8 hPa | 0 mm | - | - | - |
| 1777831936 | 17.22° C | 30% | 1018.8 hPa | 0 mm | - | - | - |
| 1777830135 | 16.11° C | 38% | 1018.7 hPa | 0 mm | - | - | - |
| 1777827735 | 15.56° C | 41% | 1019 hPa | 0 mm | - | - | - |
| 1777827135 | 15° C | 40% | 1019.2 hPa | 0 mm | - | - | - |
| 1777824155 | 11.11° C | 56% | 1018.9 hPa | 0 mm | - | - | - |
| 1777823535 | 10.56° C | 55% | 1019.1 hPa | 0 mm | - | - | - |
| 1777822935 | 10° C | 57% | 1018.9 hPa | 0 mm | - | - | - |
| 1777821735 | 8.89° C | 60% | 1018.6 hPa | 0 mm | - | - | - |
| 1777820535 | 8.33° C | 61% | 1018.6 hPa | 0 mm | - | - | - |
| 1777819335 | 7.78° C | 65% | 1018.3 hPa | 0 mm | - | - | - |
| 1777816335 | 6.67° C | 66% | 1018 hPa | 0 mm | - | - | - |
| 1777815137 | 6.11° C | 67% | 1017.8 hPa | 0 mm | - | - | - |
| 1777813937 | 5.56° C | 72% | 1017.7 hPa | 0 mm | - | - | - |
| 1777810937 | 3.33° C | 86% | 1017.5 hPa | 0 mm | - | - | - |
| 1777808577 | 2.22° C | 87% | 1016.7 hPa | 0 mm | - | - | - |
| 1777805537 | 2.22° C | 86% | 1016.5 hPa | 0 mm | - | - | - |
| 1777804937 | 2.22° C | 85% | 1016.6 hPa | 0 mm | - | - | - |
| 1777789936 | 3.89° C | 77% | 1015.4 hPa | 0 mm | - | - | - |
* Rain latest hour (hover to see other rain measurements)
** Current wind speed in m/s (hover to see current wind gust speed)